Location: La Brionne
(46.1728°N, 1.7849°E)
Time: 17:10:47
(UTC+00:00)

Cosmos 1544 Rocket - Pass Details

Date: 30 October 2021
Orbit: 603 x 632 km, 82.5° (Epoch: 27 November)

Event Time Altitude Azimuth Distance (km) Brightness Sun altitude
Rises 03:12:04 0° 3° (N) 2,901 7.2 -34.7°
Reaches altitude 10° 03:14:50 10° 21° (NNE) 1,984 6.5 -34.2°
Maximum altitude 03:18:05 20° 69° (ENE) 1,422 6.0 -33.7°
Drops below altitude 10° 03:21:19 10° 117° (ESE) 1,961 6.6 -33.1°
Sets 03:24:01 0° 135° (SE) 2,855 7.3 -32.7°
